Regional Weather Roundup
Issued by NWS

Home | Current Version | Previous Version | Text Only | Print | Product List | Glossary Off
Versions: 1 2 3 4 5 6 7 8 9 10 11 12 13 14 15 16 17 18 19 20 21 22 23 24 25 26 27 28 29 30 31 32 33 34 35 36 37 38 39 40 41 42 43 44 45 46 47 48 49 50

351
ASUS43 KLOT 270408
RWRIL

ILLINOIS REGIONAL WEATHER ROUNDUP
NATIONAL WEATHER SERVICE CHICAGO/ROMEOVILLE IL
1100 PM CDT THU APR 26 2018

NOTE: "FAIR" INDICATES FEW OR NO CLOUDS BELOW 12,000 FEET WITH NO
SIGNIFICANT WEATHER AND/OR OBSTRUCTIONS TO VISIBILITY.

* THESE STATIONS ARE NOT UNDER NWS QUALITY CONTROL. THEY ALSO MAY NOT
  REPORT WEATHER SUCH AS PRECIPITATION OR FOG.

ILZ001-002-007-009-015-016-024-270500-
NORTHWEST ILLINOIS

CITY           SKY/WX    TMP DP  RH WIND       PRES   REMARKS
MOLINE         MOCLDY    60  41  49 NW10      29.83R
STERLING*      FAIR      55  30  38 SW8       29.80F
SAVANNA*       FAIR      59  40  48 NW7       29.81S
$$

ILZ003-004-008-010-011-017-018-270500-
NORTH CENTRAL ILLINOIS

CITY           SKY/WX    TMP DP  RH WIND       PRES   REMARKS
ROCKFORD       FAIR      53  29  39 S5        29.79F
FREEPORT*      FAIR      53  32  44 W7        29.82R
ROCHELLE*      MOCLDY    49  31  49 S7        29.80F
DE KALB*       FAIR      51  33  50 S6        29.80F
PERU*          FAIR      54  34  45 S7        29.82F
$$

ILZ005-006-012>014-019>023-270500-
NORTHEAST ILLINOIS

CITY           SKY/WX    TMP DP  RH WIND       PRES   REMARKS
CHICAGO-OHARE  MOCLDY    54  31  41 S6        29.80F
CHICAGO-MIDWAY FAIR      57  30  35 S7        29.81F
AURORA         FAIR      52  32  46 S8        29.80F
LANSING*       FAIR      49  29  46 S5        29.83F
JOLIET*        FAIR      48  40  72 CALM      29.82F
WAUKEGAN       FAIR      48  29  47 SW3       29.78F
DUPAGE AIRPORT FAIR      50  34  54 S7        29.79F
KANKAKEE*      FAIR      50  34  54 SW3       29.84F
WHEELING       FAIR      50  29  44 S5        29.81F
MORRIS*        FAIR      51  31  45 S6        29.81F
ROMEOVILLE*    FAIR      51  34  52 S9        29.81F
NORTHERLY ISL    N/A     55  25  31 S6          N/A
$$

LMZ740>746-270500-
SOUTHERN LAKE MICHIGAN

STATION/POSITION SKY/WX   TEMP    WIND        PRES    VSBY  WAVE
                          AIR SEA DIR/SP/G                  HT/PER
                          (F)     (DEG/KT/KT) (MB)    (MI)  (FT/S)
HARRISON CRIB              53     180/ 13/ 13   N/A
BURNHAM HARBOR             55     180/  7       N/A
CALUMET HARBOR             56     170/  6/  8 1009.3F
BURNS HARBOR               55     160/  8/ 12 1010.8F
MICHIGAN CITY              54     130/ 10/ 11   N/A
ST. JOSEPH                 50 45  190/  6/  6 1010.4          0
$$

ILZ025>027-034>036-040-047-049-050-058-095>099-270500-
WEST-CENTRAL ILLINOIS

CITY           SKY/WX    TMP DP  RH WIND       PRES   REMARKS
QUINCY         CLEAR     55  35  47 SW7       29.88F
GALESBURG*     FAIR      56  33  42 SW7       29.84F
MACOMB*        CLEAR     49  32  50 SW8       29.87F
JACKSONVILLE*  CLEAR     54  32  42 SW6       29.88S
PITTSFIELD*    CLEAR     56  37  49 W6        29.90S
$$

ILZ028>032-037-038-041>044-048-051>054-059>061-270500-
CENTRAL ILLINOIS

CITY           SKY/WX    TMP DP  RH WIND       PRES   REMARKS
PONTIAC        FAIR      49  34  56 S5        29.85S
BLOOMINGTON    FAIR      52  36  54 SW5       29.86F
DECATUR        FAIR      52  34  50 SW3       29.87F
PEORIA         FAIR      55  34  45 SW3       29.85S
LACON*         FAIR      47  36  64 S3        29.82F
LINCOLN*       FAIR      53  37  55 CALM      29.86F
SPRINGFIELD    FAIR      50  39  66 SW5       29.87F
TAYLORVILLE    FAIR      49  38  64 SW6       29.88S
$$

ILZ033-039-045-046-055>057-062-063-270500-
EAST-CENTRAL ILLINOIS

CITY           SKY/WX    TMP DP  RH WIND       PRES   REMARKS
CHAMPAIGN      FAIR      48  35  60 SW5       29.86F
DANVILLE*      FAIR      49  36  60 CALM      29.84F
RANTOUL*       FAIR      53  39  57 CALM      29.86F
MATTOON        FAIR      51  38  60 CALM      29.86F
PARIS*         FAIR      46  38  76 CALM      29.87F
$$

ILZ079-100>102-270500-
SOUTHWEST ILLINOIS

CITY           SKY/WX    TMP DP  RH WIND       PRES   REMARKS
ALTON          CLEAR     49  35  58 CALM      29.90S
BELLEVILLE     PTCLDY    55  42  63 SW3       29.88F
CAHOKIA*       PTCLDY    51  45  79 CALM      29.89F
SPARTA*        CLOUDY    58  46  63 SW5       29.91F
$$

ILZ064>066-069>071-074>076-080>082-084>086-088>090-092>094-270500-
SOUTH-CENTRAL ILLINOIS

CITY           SKY/WX    TMP DP  RH WIND       PRES   REMARKS
CARBONDALE     FAIR      50  46  86 W3        29.90F
CAIRO*         FAIR      53  49  87 W3        29.91S
EFFINGHAM*     FAIR      51  43  73 CALM      29.90F
MARION         FAIR      52  43  71 CALM      29.92S
MT. VERNON     FAIR      48  42  80 CALM      29.90S
CENTRALIA*     CLOUDY    51  46  82 CALM      29.89F
SALEM*         FAIR      55  39  56 CALM      29.89F
METROPOLIS*    FAIR      51  46  83 CALM      29.91S
$$

ILZ067-068-072-073-078-083-087-091-270500-
SOUTHEAST ILLINOIS

CITY           SKY/WX    TMP DP  RH WIND       PRES   REMARKS
LAWRENCEVILLE  FAIR      52  43  71 MISG      29.88S
FLORA*         FAIR      52  45  78 CALM      29.89S
FAIRFIELD*     FAIR      49  43  81 CALM      29.88S
HARRISBURG*    FAIR      51  47  85 CALM      29.91S
ROBINSON*      FAIR      45  40  83 CALM      29.88F
CARMI*         FAIR      49  46  87 SW3       29.89S
$$

ABBREVIATIONS USED IN REMARKS
   TC - TEMPERATURE IN CELSIUS
  WCI - WIND CHILL INDEX
   HX - HEAT INDEX
  VSB - VISIBILITY
$$





USA.gov is the U.S. government's official web portal to all federal, state and local government web resources and services.